Glennallen, AK

5:33 PM AKST on February 24, 2017 (GMT -0900)
Gulkana

Weather History for PAGK - April, 2013

Change the Weather History Date:

Wednesday, April 17, 2013

  Actual Average Record
Temperature  
Mean Temperature 22 °F -  
Max Temperature 30 °F 42 °F 55 °F (1999)
Min Temperature 14 °F 23 °F -6 °F (2008)
Degree Days  
Heating Degree Days 43    
Moisture  
Dew Point 14 °F    
Average Humidity 71    
Maximum Humidity 92    
Minimum Humidity 33    
Precipitation  
Precipitation 0.04 in - - ()
Snow  
Snow 0.00 in - - ()
Snow Depth 10.00 in    
Sea Level Pressure  
Sea Level Pressure 30.04 in    
Wind  
Wind Speed 6 mph (North)    
Max Wind Speed 22 mph    
Max Gust Speed 33 mph    
Visibility 8 miles    
Events Snow    
Averages and records for this station are not official NWS values.
T = Trace of Precipitation, MM = Missing Value Source: NWS Daily Summary

Daily Weather History Graph

Daily Weather History Graph

Search for Another Location

Airport or City:

Trip Planner

Search our weather history database for the weather conditions in past years. The results will help you decide how hot, cold, wet, or windy it might be!

Date:

Astronomy

Apr. 17, 2013 Rise Set
Actual Time 6:09 AM AKDT 9:14 PM AKDT
Civil Twilight 5:18 AM AKDT 10:06 PM AKDT
Nautical Twilight 4:05 AM AKDT 11:20 PM AKDT
Astronomical Twilight 2:13 AM AKDT 1:08 AM AKDT
Moon 10:56 AM AKDT (4/17) 3:36 AM AKDT (4/17)
Length of Visible Light 16h 47m
Length of Day
15h 04m
Waxing Crescent, 44% of the Moon is Illuminated
Apr 17
Waxing Crescent
Apr 18
First Quarter
Apr 25
Full
May 2
Last Quarter
May 9
New

Hourly Weather History & Observations

Time (AKDT) Temp. Windchill Dew Point Humidity Pressure Visibility Wind Dir Wind Speed Gust Speed Precip Events Conditions
12:53 AM 19.9 °F 13.4 °F 18.0 °F 92% 30.06 in 7.0 mi SW 4.6 mph - 0.00 in Snow Light Snow
1:01 AM 19.9 °F 14.9 °F 18.0 °F 92% 29.94 in 7.0 mi WSW 3.5 mph - 0.00 in   Overcast
1:18 AM 19.9 °F 13.4 °F 18.0 °F 92% 29.94 in 10.0 mi SW 4.6 mph - 0.00 in   Overcast
1:53 AM 19.0 °F 11.1 °F 16.0 °F 88% 30.06 in 10.0 mi WSW 5.8 mph - 0.00 in   Mostly Cloudy
2:53 AM 18.0 °F 9.8 °F 14.0 °F 84% 30.05 in 10.0 mi WSW 5.8 mph - N/A   Overcast
3:53 AM 16.0 °F 8.8 °F 12.9 °F 88% 30.05 in 10.0 mi SSE 4.6 mph - N/A   Overcast
4:53 AM 14.0 °F 5.1 °F 12.0 °F 92% 30.05 in 10.0 mi SSE 5.8 mph - N/A   Overcast
5:53 AM 16.0 °F 10.4 °F 14.0 °F 92% 30.04 in 3.0 mi SE 3.5 mph - 0.01 in Snow Light Snow
6:27 AM 17.1 °F - 15.1 °F 92% 29.92 in 2.0 mi Calm Calm - 0.00 in Snow Light Snow
6:53 AM 17.1 °F - 15.1 °F 92% 30.04 in 1.0 mi Calm Calm - 0.01 in Snow Light Snow
7:28 AM 18.0 °F - 15.1 °F 88% 29.92 in 2.0 mi Calm Calm - 0.00 in Snow Light Snow
7:53 AM 18.0 °F 12.7 °F 15.1 °F 88% 30.03 in 2.0 mi North 3.5 mph - 0.00 in Snow Light Snow
8:20 AM 18.0 °F - 14.0 °F 84% 29.92 in 3.0 mi Calm Calm - 0.01 in Snow Light Snow
8:53 AM 19.0 °F - 15.1 °F 85% 30.02 in 5.0 mi Calm Calm - 0.01 in Snow Light Snow
9:53 AM 21.0 °F - 15.1 °F 78% 30.03 in 7.0 mi Calm Calm - 0.01 in Snow Light Snow
10:53 AM 21.9 °F - 16.0 °F 78% 30.03 in 5.0 mi Calm Calm - 0.00 in Snow Light Snow
11:53 AM 21.9 °F - 18.0 °F 85% 30.03 in 5.0 mi Calm Calm - 0.01 in Snow Light Snow
12:53 PM 24.1 °F 18.2 °F 17.1 °F 75% 30.04 in 7.0 mi SE 4.6 mph - 0.00 in   Overcast
1:53 PM 25.0 °F 19.3 °F 19.0 °F 78% 30.05 in 10.0 mi SSE 4.6 mph - N/A   Overcast
2:53 PM 27.0 °F 21.6 °F 19.9 °F 75% 30.05 in 10.0 mi SE 4.6 mph - N/A   Mostly Cloudy
3:53 PM 30.9 °F 24.3 °F 14.0 °F 50% 30.05 in 10.0 mi NNE 6.9 mph - N/A   Mostly Cloudy
4:53 PM 30.9 °F 19.8 °F 12.9 °F 47% 30.06 in 10.0 mi NNE 16.1 mph 24.2 mph 0.00 in   Mostly Cloudy
5:53 PM 30.0 °F 17.5 °F 10.9 °F 45% 30.07 in 10.0 mi NNE 19.6 mph 26.5 mph N/A   Scattered Clouds
6:53 PM 28.0 °F 15.3 °F 10.0 °F 47% 30.08 in 10.0 mi North 18.4 mph 28.8 mph N/A   Scattered Clouds
7:53 PM 27.0 °F 12.8 °F 9.0 °F 47% 30.10 in 10.0 mi North 21.9 mph 32.2 mph N/A   Scattered Clouds
8:53 PM 25.0 °F 10.6 °F 8.1 °F 49% 30.12 in 10.0 mi North 20.7 mph 33.4 mph N/A   Scattered Clouds
9:27 PM 25.0 °F 10.9 °F 8.1 °F 49% 30.02 in 10.0 mi North 19.6 mph 29.9 mph N/A   Partly Cloudy
9:53 PM 24.1 °F 9.8 °F 7.0 °F 48% 30.13 in 10.0 mi North 19.6 mph - N/A   Clear
10:53 PM 23.0 °F 8.3 °F 7.0 °F 50% 30.14 in 10.0 mi North 19.6 mph 27.6 mph N/A   Clear
11:53 PM 21.0 °F 7.6 °F 6.1 °F 53% 30.16 in 10.0 mi NNW 15.0 mph 27.6 mph N/A   Clear